| time (UTC) | temp C | wind direction | speed KPH | gust KPH | rain 1hr cm | rain 24hr cm | rain mn cm | humidity % | barometer mb |
| 20260506212520 | 11 | 340 | 1.6 | 9.7 | 0.00 | 1.52 | 1.52 | 89 | 1009.2 |
| 20260506212020 | 11 | 340 | 4.8 | 12.9 | 0.00 | 1.52 | 1.52 | 89 | 1009.1 |
| 20260506211520 | 11 | 342 | 4.8 | 14.5 | 0.00 | 1.52 | 1.52 | 89 | 1009.0 |
| 20260506211020 | 11 | 337 | 3.2 | 14.5 | 0.00 | 1.52 | 1.52 | 89 | 1009.0 |
| 20260506210518 | 11 | 333 | 4.8 | 9.7 | 0.00 | 1.52 | 1.52 | 89 | 1008.9 |
| 20260506210019 | 11 | 338 | 4.8 | 9.7 | 0.00 | 1.52 | 1.52 | 90 | 1008.9 |
| 20260506205517 | 11 | 344 | 3.2 | 9.7 | 0.00 | 1.55 | 1.52 | 90 | 1008.9 |
| 20260506205017 | 11 | 346 | 3.2 | 9.7 | 0.00 | 1.55 | 1.52 | 90 | 1008.8 |
| 20260506204517 | 11 | 346 | 1.6 | 8.0 | 0.00 | 1.55 | 1.52 | 90 | 1008.8 |
| 20260506204017 | 11 | 346 | 3.2 | 8.0 | 0.00 | 1.55 | 1.52 | 90 | 1008.8 |
| 20260506203516 | 11 | 343 | 3.2 | 8.0 | 0.00 | 1.55 | 1.52 | 90 | 1008.9 |
| 20260506203020 | 11 | 344 | 3.2 | 8.0 | 0.00 | 1.55 | 1.52 | 90 | 1008.8 |
| 20260506202514 | 11 | 343 | 4.8 | 12.9 | 0.00 | 1.55 | 1.52 | 90 | 1008.7 |
| 20260506202017 | 11 | 344 | 4.8 | 12.9 | 0.00 | 1.55 | 1.52 | 90 | 1008.6 |
| 20260506201512 | 11 | 338 | 3.2 | 6.4 | 0.00 | 1.55 | 1.52 | 90 | 1008.6 |
| 20260506201012 | 11 | 337 | 1.6 | 6.4 | 0.00 | 1.55 | 1.52 | 90 | 1008.5 |
| 20260506200511 | 11 | 337 | 3.2 | 6.4 | 0.00 | 1.55 | 1.52 | 90 | 1008.5 |
| 20260506200015 | 11 | 336 | 3.2 | 9.7 | 0.00 | 1.55 | 1.52 | 90 | 1008.5 |
| 20260506195510 | 11 | 336 | 3.2 | 9.7 | 0.00 | 1.55 | 1.52 | 90 | 1008.4 |
| 20260506195011 | 11 | 336 | 3.2 | 12.9 | 0.00 | 1.55 | 1.52 | 90 | 1008.3 |
| 20260506194509 | 11 | 331 | 6.4 | 12.9 | 0.00 | 1.55 | 1.52 | 90 | 1008.0 |
| 20260506194008 | 12 | 342 | 3.2 | 8.0 | 0.03 | 1.55 | 1.52 | 90 | 1008.1 |
| 20260506193511 | 12 | 342 | 3.2 | 8.0 | 0.03 | 1.55 | 1.52 | 90 | 1008.1 |
| 20260506193006 | 12 | 340 | 1.6 | 8.0 | 0.03 | 1.55 | 1.52 | 90 | 1007.9 |
| 20260506192505 | 12 | 340 | 1.6 | 9.7 | 0.03 | 1.55 | 1.52 | 90 | 1007.8 |
| 20260506192005 | 12 | 340 | 4.8 | 9.7 | 0.03 | 1.55 | 1.52 | 90 | 1007.6 |
| 20260506191504 | 12 | 342 | 3.2 | 14.5 | 0.03 | 1.55 | 1.52 | 90 | 1007.5 |
| 20260506191004 | 12 | 339 | 4.8 | 14.5 | 0.03 | 1.55 | 1.52 | 90 | 1007.5 |
| 20260506190504 | 12 | 342 | 4.8 | 12.9 | 0.03 | 1.55 | 1.52 | 90 | 1007.4 |
| 20260506190005 | 12 | 338 | 3.2 | 8.0 | 0.03 | 1.55 | 1.52 | 90 | 1007.5 |
| 20260506185502 | 12 | 338 | 1.6 | 9.7 | 0.03 | 1.57 | 1.52 | 90 | 1007.4 |
| 20260506185002 | 12 | 337 | 1.6 | 9.7 | 0.03 | 1.57 | 1.52 | 90 | 1007.3 |
| 20260506184502 | 12 | 335 | 3.2 | 9.7 | 0.03 | 1.57 | 1.52 | 90 | 1007.3 |
| 20260506184004 | 12 | 333 | 1.6 | 6.4 | 0.03 | 1.55 | 1.50 | 90 | 1007.3 |
| 20260506183501 | 12 | 333 | 1.6 | 6.4 | 0.03 | 1.55 | 1.50 | 90 | 1007.2 |
| 20260506183201 | 12 | 333 | 1.6 | 6.4 | 0.03 | 1.55 | 1.50 | 90 | 1007.1 |
| 20260506182559 | 12 | 333 | 1.6 | 8.0 | 0.03 | 1.55 | 1.50 | 90 | 1007.1 |
| 20260506182059 | 12 | 333 | 1.6 | 8.0 | 0.03 | 1.55 | 1.50 | 89 | 1007.1 |
| 20260506181602 | 13 | 332 | 1.6 | 6.4 | 0.03 | 1.55 | 1.50 | 89 | 1007.0 |
| 20260506181059 | 13 | 336 | 0.0 | 4.8 | 0.03 | 1.55 | 1.50 | 90 | 1007.0 |
| 20260506180559 | 13 | 336 | 1.6 | 4.8 | 0.03 | 1.55 | 1.50 | 89 | 1006.9 |
| 20260506180116 | 13 | 344 | 0.0 | 3.2 | 0.03 | 1.55 | 1.50 | 89 | 1006.8 |
| 20260506175600 | 13 | 345 | 0.0 | 9.7 | 0.03 | 1.63 | 1.50 | 89 | 1006.9 |
| 20260506175103 | 13 | 346 | 1.6 | 9.7 | 0.03 | 1.63 | 1.50 | 89 | 1006.6 |
| 20260506174558 | 13 | 346 | 3.2 | 12.9 | 0.03 | 1.63 | 1.50 | 88 | 1006.6 |
| 20260506174059 | 13 | 347 | 3.2 | 12.9 | 0.00 | 1.60 | 1.45 | 88 | 1006.7 |
| 20260506173558 | 13 | 288 | 1.6 | 6.4 | 0.00 | 1.60 | 1.45 | 87 | 1006.6 |
| 20260506173133 | 13 | 281 | 1.6 | 6.4 | 0.00 | 1.60 | 1.45 | 86 | 1006.6 |
| 20260506172557 | 13 | 280 | 1.6 | 9.7 | 0.00 | 1.60 | 1.45 | 86 | 1006.5 |
| 20260506172057 | 14 | 258 | 3.2 | 9.7 | 0.00 | 1.60 | 1.45 | 85 | 1006.5 |
| 20260506171557 | 14 | 256 | 1.6 | 12.9 | 0.00 | 1.60 | 1.45 | 85 | 1006.5 |
| 20260506171057 | 14 | 256 | 1.6 | 12.9 | 0.00 | 1.60 | 1.45 | 85 | 1006.4 |
| 20260506170558 | 14 | 327 | 1.6 | 8.0 | 0.00 | 1.60 | 1.45 | 85 | 1006.4 |
| 20260506170057 | 15 | 339 | 1.6 | 12.9 | 0.00 | 1.60 | 1.45 | 85 | 1006.3 |
| 20260506165556 | 15 | 348 | 1.6 | 12.9 | 0.00 | 1.65 | 1.45 | 84 | 1006.2 |
| 20260506165056 | 15 | 286 | 1.6 | 9.7 | 0.00 | 1.65 | 1.45 | 85 | 1006.2 |
| 20260506164557 | 15 | 260 | 1.6 | 9.7 | 0.00 | 1.65 | 1.45 | 85 | 1006.2 |
| 20260506164055 | 15 | 328 | 1.6 | 8.0 | 0.00 | 1.65 | 1.45 | 85 | 1006.1 |
| 20260506163557 | 15 | 287 | 1.6 | 6.4 | 0.00 | 1.65 | 1.45 | 85 | 1006.1 |
| 20260506163103 | 15 | 246 | 0.0 | 4.8 | 0.00 | 1.65 | 1.45 | 86 | 1006.1 |
| 20260506162558 | 15 | 246 | 1.6 | 4.8 | 0.00 | 1.65 | 1.45 | 86 | 1006.1 |
| 20260506162055 | 15 | 258 | 0.0 | 6.4 | 0.00 | 1.65 | 1.45 | 86 | 1006.0 |
| 20260506161557 | 15 | 258 | 1.6 | 6.4 | 0.00 | 1.65 | 1.45 | 87 | 1006.1 |
| 20260506161054 | 15 | 259 | 0.0 | 1.6 | 0.00 | 1.65 | 1.45 | 87 | 1006.1 |
| 20260506160554 | 15 | 259 | 0.0 | 4.8 | 0.00 | 1.65 | 1.45 | 87 | 1006.2 |
| 20260506160054 | 15 | 259 | 1.6 | 4.8 | 0.00 | 1.65 | 1.45 | 87 | 1006.1 |
| 20260506155555 | 15 | 259 | 1.6 | 4.8 | 0.10 | 1.75 | 1.45 | 88 | 1006.0 |
| 20260506155054 | 15 | 258 | 0.0 | 4.8 | 0.25 | 1.75 | 1.45 | 88 | 1006.1 |
| 20260506154555 | 15 | 258 | 1.6 | 4.8 | 0.28 | 1.75 | 1.45 | 87 | 1006.1 |
| 20260506154054 | 15 | 258 | 1.6 | 8.0 | 0.28 | 1.75 | 1.45 | 88 | 1006.0 |
| 20260506153556 | 15 | 255 | 1.6 | 8.0 | 0.28 | 1.75 | 1.45 | 88 | 1006.0 |
| 20260506153057 | 15 | 330 | 1.6 | 6.4 | 0.28 | 1.75 | 1.45 | 89 | 1006.0 |
| 20260506152553 | 15 | 330 | 0.0 | 6.4 | 0.28 | 1.75 | 1.45 | 89 | 1006.0 |
| 20260506152053 | 14 | 330 | 1.6 | 4.8 | 0.28 | 1.75 | 1.45 | 89 | 1005.9 |
| 20260506151553 | 14 | 330 | 1.6 | 4.8 | 0.28 | 1.75 | 1.45 | 89 | 1005.9 |
| 20260506151053 | 14 | 330 | 0.0 | 6.4 | 0.28 | 1.75 | 1.45 | 89 | 1006.0 |
| 20260506150557 | 14 | 330 | 1.6 | 6.4 | 0.28 | 1.75 | 1.45 | 88 | 1005.9 |
| 20260506150057 | 14 | 330 | 1.6 | 4.8 | 0.28 | 1.75 | 1.45 | 87 | 1005.9 |
| 20260506145553 | 15 | 329 | 0.0 | 4.8 | 0.18 | 1.65 | 1.37 | 84 | 1005.9 |
| 20260506145052 | 15 | 329 | 1.6 | 9.7 | 0.03 | 1.45 | 1.22 | 81 | 1005.8 |
| 20260506144604 | 16 | 332 | 1.6 | 9.7 | 0.00 | 1.42 | 1.19 | 80 | 1005.8 |
| 20260506144052 | 16 | 330 | 1.6 | 14.5 | 0.00 | 1.42 | 1.19 | 77 | 1005.7 |
| 20260506143552 | 16 | 253 | 0.0 | 3.2 | 0.00 | 1.42 | 1.19 | 75 | 1005.6 |
| 20260506143052 | 16 | 253 | 0.0 | 3.2 | 0.00 | 1.42 | 1.19 | 73 | 1005.5 |
| 20260506142553 | 16 | 253 | 0.0 | 14.5 | 0.00 | 1.42 | 1.19 | 75 | 1005.4 |
| 20260506142051 | 17 | 253 | 1.6 | 16.1 | 0.00 | 1.42 | 1.19 | 75 | 1005.5 |
| 20260506141551 | 17 | 254 | 8.0 | 14.5 | 0.00 | 1.42 | 1.19 | 73 | 1005.4 |
| 20260506141051 | 17 | 238 | 8.0 | 16.1 | 0.00 | 1.42 | 1.19 | 72 | 1005.5 |
| 20260506140552 | 17 | 231 | 6.4 | 19.3 | 0.00 | 1.42 | 1.19 | 72 | 1005.4 |
| 20260506140051 | 17 | 244 | 11.3 | 19.3 | 0.00 | 1.42 | 1.19 | 71 | 1005.4 |
| 20260506135551 | 17 | 215 | 12.9 | 19.3 | 0.00 | 1.42 | 1.19 | 72 | 1005.4 |
| 20260506135052 | 17 | 238 | 9.7 | 16.1 | 0.00 | 1.42 | 1.19 | 70 | 1005.5 |
| 20260506134554 | 17 | 188 | 12.9 | 19.3 | 0.00 | 1.42 | 1.19 | 70 | 1005.5 |
| 20260506134050 | 17 | 195 | 9.7 | 19.3 | 0.00 | 1.42 | 1.19 | 70 | 1005.5 |
| 20260506133550 | 17 | 186 | 9.7 | 19.3 | 0.00 | 1.42 | 1.19 | 72 | 1005.5 |
| 20260506133056 | 17 | 192 | 9.7 | 17.7 | 0.00 | 1.42 | 1.19 | 70 | 1005.6 |
| 20260506132549 | 17 | 227 | 8.0 | 16.1 | 0.00 | 1.42 | 1.19 | 73 | 1005.6 |
| 20260506132051 | 17 | 225 | 9.7 | 17.7 | 0.00 | 1.42 | 1.19 | 73 | 1005.6 |
| 20260506131549 | 17 | 200 | 9.7 | 17.7 | 0.00 | 1.42 | 1.19 | 72 | 1005.7 |
| 20260506131049 | 17 | 204 | 6.4 | 16.1 | 0.00 | 1.42 | 1.19 | 74 | 1005.7 |
| 20260506130549 | 17 | 200 | 8.0 | 16.1 | 0.00 | 1.42 | 1.19 | 72 | 1005.7 |
| 20260506130051 | 17 | 190 | 11.3 | 17.7 | 0.00 | 1.42 | 1.19 | 73 | 1005.6 |
| 20260506125548 | 17 | 173 | 11.3 | 17.7 | 0.00 | 1.42 | 1.19 | 73 | 1005.7 |
| 20260506125048 | 17 | 213 | 9.7 | 20.9 | 0.00 | 1.42 | 1.19 | 73 | 1005.7 |
| 20260506124547 | 17 | 198 | 14.5 | 24.1 | 0.00 | 1.42 | 1.19 | 69 | 1005.8 |
| 20260506124047 | 17 | 248 | 12.9 | 19.3 | 0.00 | 1.42 | 1.19 | 71 | 1005.7 |
| 20260506123547 | 18 | 219 | 11.3 | 17.7 | 0.00 | 1.42 | 1.19 | 70 | 1005.7 |
| 20260506123047 | 18 | 220 | 9.7 | 16.1 | 0.00 | 1.42 | 1.19 | 70 | 1005.7 |
| 20260506122546 | 18 | 207 | 9.7 | 19.3 | 0.00 | 1.42 | 1.19 | 72 | 1005.7 |
| 20260506122045 | 17 | 209 | 11.3 | 17.7 | 0.00 | 1.42 | 1.19 | 72 | 1005.7 |
| 20260506121544 | 17 | 222 | 9.7 | 19.3 | 0.00 | 1.42 | 1.19 | 72 | 1005.8 |
| 20260506121044 | 17 | 220 | 11.3 | 19.3 | 0.00 | 1.42 | 1.19 | 74 | 1005.8 |
| 20260506120544 | 17 | 207 | 11.3 | 16.1 | 0.00 | 1.42 | 1.19 | 73 | 1005.8 |
| 20260506120044 | 16 | 223 | 9.7 | 17.7 | 0.00 | 1.42 | 1.19 | 73 | 1005.7 |
| 20260506115546 | 16 | 224 | 9.7 | 17.7 | 0.00 | 1.42 | 1.19 | 73 | 1005.8 |
| 20260506115043 | 16 | 219 | 6.4 | 16.1 | 0.00 | 1.42 | 1.19 | 74 | 1005.8 |
| 20260506114543 | 17 | 234 | 9.7 | 16.1 | 0.00 | 1.42 | 1.19 | 74 | 1005.9 |
| 20260506114043 | 17 | 198 | 8.0 | 16.1 | 0.00 | 1.42 | 1.19 | 76 | 1005.8 |
| 20260506113543 | 17 | 227 | 8.0 | 19.3 | 0.00 | 1.42 | 1.19 | 74 | 1005.9 |
| 20260506113043 | 17 | 240 | 9.7 | 19.3 | 0.00 | 1.42 | 1.19 | 74 | 1005.8 |
| 20260506112542 | 17 | 187 | 6.4 | 14.5 | 0.00 | 1.42 | 1.19 | 75 | 1005.9 |
| 20260506112043 | 17 | 220 | 9.7 | 14.5 | 0.00 | 1.42 | 1.19 | 76 | 1005.9 |
| 20260506111540 | 16 | 180 | 6.4 | 14.5 | 0.00 | 1.42 | 1.19 | 76 | 1005.9 |
| 20260506111040 | 16 | 209 | 6.4 | 16.1 | 0.00 | 1.42 | 1.19 | 76 | 1005.9 |
| 20260506110540 | 16 | 182 | 6.4 | 14.5 | 0.00 | 1.42 | 1.19 | 77 | 1005.8 |
| 20260506110042 | 16 | 207 | 6.4 | 12.9 | 0.00 | 1.42 | 1.19 | 76 | 1005.9 |
| 20260506105542 | 16 | 232 | 9.7 | 17.7 | 0.00 | 1.42 | 1.19 | 73 | 1005.9 |
| 20260506105043 | 16 | 198 | 8.0 | 17.7 | 0.00 | 1.42 | 1.19 | 73 | 1005.9 |
| 20260506104546 | 16 | 215 | 6.4 | 17.7 | 0.00 | 1.42 | 1.19 | 75 | 1005.9 |
| 20260506104040 | 16 | 218 | 11.3 | 16.1 | 0.00 | 1.42 | 1.19 | 74 | 1005.9 |
| 20260506103539 | 16 | 221 | 9.7 | 17.7 | 0.00 | 1.42 | 1.19 | 74 | 1005.9 |
| 20260506103041 | 16 | 242 | 9.7 | 17.7 | 0.00 | 1.42 | 1.19 | 75 | 1006.0 |
| 20260506102542 | 16 | 240 | 11.3 | 19.3 | 0.00 | 1.42 | 1.19 | 75 | 1006.0 |
| 20260506102038 | 16 | 258 | 11.3 | 19.3 | 0.00 | 1.42 | 1.19 | 75 | 1005.9 |
| 20260506101537 | 16 | 221 | 9.7 | 17.7 | 0.00 | 1.42 | 1.19 | 76 | 1006.0 |
| 20260506101037 | 16 | 208 | 9.7 | 19.3 | 0.00 | 1.42 | 1.19 | 78 | 1006.0 |
| 20260506100537 | 16 | 240 | 11.3 | 19.3 | 0.00 | 1.42 | 1.19 | 76 | 1005.9 |
| 20260506100037 | 16 | 243 | 9.7 | 16.1 | 0.00 | 1.42 | 1.19 | 77 | 1006.0 |
| 20260506095537 | 16 | 202 | 8.0 | 16.1 | 0.00 | 1.42 | 1.19 | 77 | 1006.0 |
| 20260506095036 | 16 | 178 | 8.0 | 17.7 | 0.00 | 1.42 | 1.19 | 76 | 1006.1 |
| 20260506094536 | 16 | 223 | 9.7 | 19.3 | 0.00 | 1.42 | 1.19 | 77 | 1006.0 |
| 20260506094036 | 16 | 173 | 12.9 | 22.5 | 0.00 | 1.42 | 1.19 | 78 | 1006.0 |
| 20260506093535 | 16 | 252 | 11.3 | 22.5 | 0.00 | 1.42 | 1.19 | 78 | 1006.1 |
| 20260506093039 | 16 | 192 | 9.7 | 24.1 | 0.00 | 1.42 | 1.19 | 79 | 1006.0 |
| 20260506092535 | 16 | 227 | 8.0 | 19.3 | 0.00 | 1.42 | 1.19 | 81 | 1006.0 |
| 20260506092035 | 16 | 235 | 8.0 | 17.7 | 0.00 | 1.42 | 1.19 | 79 | 1006.0 |
| 20260506091535 | 16 | 207 | 9.7 | 19.3 | 0.00 | 1.42 | 1.19 | 79 | 1005.9 |
| 20260506091035 | 16 | 223 | 9.7 | 19.3 | 0.00 | 1.42 | 1.19 | 81 | 1005.8 |
| 20260506090533 | 16 | 232 | 11.3 | 17.7 | 0.00 | 1.42 | 1.19 | 81 | 1005.9 |
| 20260506090034 | 15 | 205 | 11.3 | 17.7 | 0.00 | 1.42 | 1.19 | 82 | 1005.9 |
| 20260506085533 | 15 | 243 | 12.9 | 19.3 | 0.00 | 1.42 | 1.19 | 81 | 1005.9 |
| 20260506085034 | 15 | 217 | 12.9 | 19.3 | 0.00 | 1.42 | 1.19 | 82 | 1005.8 |
| 20260506084537 | 15 | 194 | 9.7 | 22.5 | 0.00 | 1.42 | 1.19 | 83 | 1005.9 |
| 20260506084036 | 15 | 244 | 12.9 | 22.5 | 0.00 | 1.42 | 1.19 | 83 | 1005.8 |
| 20260506083534 | 15 | 188 | 11.3 | 19.3 | 0.00 | 1.42 | 1.19 | 84 | 1005.7 |
| 20260506083036 | 15 | 202 | 9.7 | 22.5 | 0.00 | 1.42 | 1.19 | 83 | 1005.7 |
| 20260506082533 | 15 | 227 | 14.5 | 20.9 | 0.00 | 1.42 | 1.19 | 82 | 1005.7 |
| 20260506082032 | 16 | 221 | 11.3 | 20.9 | 0.00 | 1.42 | 1.19 | 82 | 1005.9 |
| 20260506081531 | 16 | 248 | 11.3 | 22.5 | 0.00 | 1.42 | 1.19 | 83 | 1005.9 |
| 20260506081031 | 16 | 204 | 11.3 | 16.1 | 0.00 | 1.42 | 1.19 | 84 | 1005.8 |
| 20260506080529 | 16 | 200 | 8.0 | 16.1 | 0.00 | 1.42 | 1.19 | 86 | 1005.9 |
| 20260506073524 | 14 | 236 | 11.3 | 19.3 | 0.00 | 1.42 | 1.19 | 90 | 1005.8 |
| 20260506073022 | 14 | 219 | 6.4 | 17.7 | 0.00 | 1.42 | 1.19 | 92 | 1005.8 |
| 20260506072524 | 14 | 206 | 12.9 | 17.7 | 0.00 | 1.42 | 1.19 | 92 | 1005.9 |
| 20260506072020 | 14 | 254 | 8.0 | 17.7 | 0.00 | 1.42 | 1.19 | 93 | 1005.9 |
| 20260506071520 | 13 | 219 | 9.7 | 16.1 | 0.00 | 1.42 | 1.19 | 93 | 1005.9 |
| 20260506071019 | 13 | 193 | 9.7 | 14.5 | 0.00 | 1.42 | 1.19 | 93 | 1005.9 |
| 20260506070519 | 13 | 231 | 9.7 | 17.7 | 0.00 | 1.42 | 1.19 | 94 | 1005.7 |
| 20260506062517 | 13 | 242 | 8.0 | 16.1 | 0.00 | 1.42 | 1.19 | 94 | 1005.8 |
| 20260506062017 | 13 | 193 | 8.0 | 12.9 | 0.00 | 1.42 | 1.19 | 94 | 1005.7 |
| 20260506061524 | 13 | 198 | 8.0 | 14.5 | 0.00 | 1.42 | 1.19 | 94 | 1005.7 |
| 20260506061018 | 13 | 196 | 8.0 | 14.5 | 0.00 | 1.42 | 1.19 | 94 | 1005.7 |
| 20260506060517 | 13 | 197 | 6.4 | 11.3 | 0.00 | 1.42 | 1.19 | 95 | 1005.6 |
| 20260506051015 | 12 | 200 | 1.6 | 8.0 | 0.00 | 1.42 | 1.19 | 94 | 1005.5 |
| 20260506050515 | 12 | 201 | 1.6 | 8.0 | 0.00 | 1.42 | 1.19 | 94 | 1005.5 |
| 20260506045013 | 12 | 201 | 3.2 | 6.4 | 0.00 | 1.42 | 1.19 | 95 | 1005.5 |
| 20260506044519 | 12 | 202 | 3.2 | 6.4 | 0.00 | 1.42 | 1.19 | 95 | 1005.7 |
| 20260506044013 | 12 | 203 | 3.2 | 8.0 | 0.00 | 1.42 | 1.19 | 95 | 1005.6 |
| 20260506043515 | 12 | 203 | 1.6 | 6.4 | 0.00 | 1.42 | 1.19 | 94 | 1005.6 |
| 20260506043019 | 12 | 204 | 1.6 | 8.0 | 0.00 | 1.42 | 1.19 | 94 | 1005.6 |
| 20260506042514 | 12 | 204 | 1.6 | 8.0 | 0.00 | 1.42 | 1.19 | 95 | 1005.6 |
| 20260506042013 | 12 | 204 | 1.6 | 6.4 | 0.00 | 1.42 | 1.19 | 95 | 1005.6 |
| 20260506041516 | 12 | 204 | 3.2 | 9.7 | 0.00 | 1.42 | 1.19 | 95 | 1005.6 |
| 20260506041015 | 12 | 203 | 4.8 | 12.9 | 0.00 | 1.42 | 1.19 | 95 | 1005.6 |
| 20260506040514 | 12 | 205 | 4.8 | 12.9 | 0.00 | 1.42 | 1.19 | 95 | 1005.6 |
| 20260506040012 | 12 | 198 | 4.8 | 12.9 | 0.00 | 1.42 | 1.19 | 95 | 1005.6 |
| 20260506035511 | 12 | 194 | 4.8 | 12.9 | 0.00 | 1.42 | 1.19 | 95 | 1005.6 |
| 20260506035013 | 12 | 194 | 6.4 | 12.9 | 0.00 | 1.42 | 1.19 | 95 | 1005.6 |
| 20260506034511 | 12 | 200 | 4.8 | 11.3 | 0.00 | 1.42 | 1.19 | 94 | 1005.6 |
| 20260506034010 | 12 | 198 | 4.8 | 11.3 | 0.00 | 1.42 | 1.19 | 94 | 1005.6 |
| 20260506033509 | 12 | 200 | 4.8 | 12.9 | 0.00 | 1.42 | 1.19 | 94 | 1005.6 |
| 20260506033009 | 12 | 213 | 6.4 | 12.9 | 0.00 | 1.42 | 1.19 | 94 | 1005.6 |
| 20260506032508 | 12 | 215 | 4.8 | 11.3 | 0.00 | 1.42 | 1.19 | 94 | 1005.5 |
| 20260506032007 | 12 | 202 | 4.8 | 11.3 | 0.00 | 1.42 | 1.19 | 94 | 1005.5 |
| 20260506031507 | 12 | 216 | 6.4 | 11.3 | 0.03 | 1.42 | 1.19 | 94 | 1005.6 |
| 20260506031006 | 12 | 205 | 6.4 | 11.3 | 0.05 | 1.42 | 1.19 | 94 | 1005.6 |
| 20260506030506 | 12 | 193 | 4.8 | 11.3 | 0.05 | 1.42 | 1.19 | 95 | 1005.5 |
| 20260506030005 | 12 | 211 | 6.4 | 11.3 | 0.05 | 1.42 | 1.19 | 95 | 1005.6 |
| 20260506025505 | 12 | 209 | 4.8 | 9.7 | 0.05 | 1.42 | 1.19 | 95 | 1005.6 |
| 20260506025004 | 12 | 221 | 4.8 | 9.7 | 0.05 | 1.42 | 1.19 | 95 | 1005.6 |
| 20260506024505 | 12 | 227 | 4.8 | 8.0 | 0.05 | 1.42 | 1.19 | 95 | 1005.7 |
| 20260506024005 | 12 | 227 | 3.2 | 8.0 | 0.05 | 1.42 | 1.19 | 95 | 1005.6 |
| 20260506023504 | 12 | 231 | 4.8 | 8.0 | 0.05 | 1.42 | 1.19 | 95 | 1005.6 |
| 20260506023002 | 12 | 233 | 4.8 | 8.0 | 0.05 | 1.42 | 1.19 | 95 | 1005.6 |
| 20260506022502 | 12 | 234 | 4.8 | 8.0 | 0.05 | 1.42 | 1.19 | 94 | 1005.7 |
| 20260506022002 | 12 | 234 | 3.2 | 9.7 | 0.05 | 1.42 | 1.19 | 94 | 1005.6 |
| 20260506021503 | 12 | 234 | 1.6 | 9.7 | 0.05 | 1.42 | 1.17 | 94 | 1005.6 |
| 20260506021004 | 12 | 202 | 0.0 | 6.4 | 0.00 | 1.40 | 1.14 | 94 | 1005.7 |
| 20260506020505 | 12 | 202 | 1.6 | 6.4 | 0.00 | 1.40 | 1.14 | 94 | 1005.6 |
| 20260506020002 | 12 | 201 | 1.6 | 8.0 | 0.03 | 1.40 | 1.14 | 94 | 1005.6 |
| 20260506015503 | 12 | 201 | 3.2 | 6.4 | 0.03 | 1.40 | 1.14 | 94 | 1005.7 |
| 20260506015003 | 12 | 202 | 1.6 | 4.8 | 0.05 | 1.40 | 1.14 | 94 | 1005.5 |
| 20260506014501 | 12 | 202 | 0.0 | 4.8 | 0.10 | 1.40 | 1.14 | 94 | 1005.5 |
| 20260506014002 | 12 | 203 | 0.0 | 4.8 | 0.15 | 1.40 | 1.14 | 94 | 1005.7 |
| 20260506013600 | 12 | 203 | 1.6 | 3.2 | 0.18 | 1.40 | 1.14 | 94 | 1005.7 |
| 20260506013106 | 12 | 203 | 0.0 | 4.8 | 0.23 | 1.40 | 1.14 | 94 | 1005.8 |
| 20260506012559 | 12 | 203 | 1.6 | 4.8 | 0.30 | 1.40 | 1.14 | 94 | 1005.9 |
| 20260506012101 | 12 | 203 | 0.0 | 4.8 | 0.36 | 1.40 | 1.14 | 94 | 1006.0 |
| 20260506011623 | 12 | 203 | 0.0 | 3.2 | 0.41 | 1.40 | 1.14 | 94 | 1005.9 |
| 20260506011058 | 12 | 203 | 0.0 | 1.6 | 0.51 | 1.40 | 1.14 | 94 | 1005.9 |
| 20260506010558 | 12 | 203 | 0.0 | 1.6 | 0.66 | 1.40 | 1.14 | 94 | 1005.9 |
| 20260506010119 | 12 | 203 | 0.0 | 3.2 | 0.89 | 1.37 | 1.12 | 94 | 1005.9 |
| 20260506005558 | 12 | 203 | 1.6 | 3.2 | 1.07 | 1.37 | 1.12 | 94 | 1006.0 |
| 20260506005101 | 12 | 203 | 1.6 | 3.2 | 1.07 | 1.35 | 1.09 | 94 | 1006.0 |
| 20260506004557 | 12 | 203 | 1.6 | 3.2 | 1.04 | 1.30 | 1.04 | 94 | 1005.9 |
| 20260506004056 | 12 | 203 | 0.0 | 3.2 | 0.99 | 1.27 | 0.99 | 94 | 1006.0 |
| 20260506003556 | 12 | 203 | 0.0 | 0.0 | 0.94 | 1.19 | 0.94 | 94 | 1006.0 |
| 20260506003057 | 12 | 203 | 0.0 | 1.6 | 0.89 | 1.17 | 0.89 | 94 | 1006.0 |
| 20260506002554 | 12 | 203 | 0.0 | 3.2 | 0.84 | 1.09 | 0.84 | 94 | 1006.1 |
| 20260506002053 | 12 | 203 | 0.0 | 3.2 | 0.79 | 1.04 | 0.79 | 94 | 1006.2 |
| 20260506001556 | 12 | 203 | 0.0 | 4.8 | 0.71 | 0.99 | 0.71 | 94 | 1006.3 |
| 20260506001051 | 12 | 203 | 1.6 | 4.8 | 0.61 | 0.89 | 0.61 | 94 | 1006.3 |
| 20260506000550 | 13 | 203 | 0.0 | 9.7 | 0.48 | 0.71 | 0.48 | 94 | 1006.4 |
| 20260506000057 | 13 | 203 | 3.2 | 9.7 | 0.23 | 0.51 | 0.23 | 94 | 1006.5 |
| 20260505235549 | 13 | 224 | 4.8 | 11.3 | 0.05 | 0.33 | 0.05 | 94 | 1006.5 |
| 20260505235049 | 13 | 247 | 3.2 | 6.4 | 0.03 | 0.28 | 0.03 | 94 | 1006.4 |
| 20260505234549 | 13 | 248 | 3.2 | 4.8 | 0.00 | 0.25 | 0.00 | 94 | 1006.5 |
| 20260505234047 | 13 | 248 | 1.6 | 4.8 | 0.00 | 0.25 | 0.00 | 94 | 1006.5 |
| 20260505233547 | 13 | 248 | 3.2 | 6.4 | 0.00 | 0.25 | 0.00 | 94 | 1006.6 |
| 20260505233047 | 13 | 248 | 3.2 | 6.4 | 0.00 | 0.25 | 0.00 | 94 | 1006.5 |
| 20260505232548 | 13 | 250 | 1.6 | 6.4 | 0.00 | 0.25 | 0.00 | 94 | 1006.5 |
| 20260505232046 | 13 | 250 | 3.2 | 6.4 | 0.00 | 0.25 | 0.00 | 94 | 1006.5 |
| 20260505231546 | 13 | 251 | 1.6 | 6.4 | 0.00 | 0.25 | 0.00 | 94 | 1006.5 |
| 20260505231045 | 13 | 251 | 3.2 | 6.4 | 0.00 | 0.25 | 0.00 | 94 | 1006.5 |
| 20260505230546 | 13 | 251 | 1.6 | 4.8 | 0.00 | 0.25 | 0.00 | 94 | 1006.6 |
| 20260505230045 | 13 | 251 | 1.6 | 4.8 | 0.00 | 0.25 | 0.00 | 94 | 1006.6 |
| 20260505225545 | 13 | 251 | 1.6 | 4.8 | 0.00 | 0.25 | 0.00 | 94 | 1006.6 |
| 20260505225045 | 13 | 251 | 0.0 | 6.4 | 0.00 | 0.25 | 0.00 | 94 | 1006.7 |
| 20260505224544 | 13 | 251 | 1.6 | 6.4 | 0.00 | 0.25 | 0.00 | 94 | 1006.7 |
| 20260505224043 | 13 | 251 | 1.6 | 4.8 | 0.00 | 0.25 | 0.00 | 94 | 1006.7 |
| 20260505223546 | 13 | 251 | 1.6 | 4.8 | 0.00 | 0.25 | 0.00 | 94 | 1006.7 |
| 20260505223042 | 13 | 251 | 0.0 | 3.2 | 0.00 | 0.25 | 0.00 | 94 | 1006.7 |
| 20260505222541 | 13 | 251 | 0.0 | 1.6 | 0.00 | 0.25 | 0.00 | 94 | 1006.8 |
| 20260505222041 | 13 | 251 | 0.0 | 3.2 | 0.00 | 0.25 | 0.00 | 94 | 1006.8 |
| 20260505221546 | 13 | 251 | 0.0 | 3.2 | 0.00 | 0.25 | 0.00 | 94 | 1006.9 |
| 20260505221040 | 13 | 251 | 0.0 | 3.2 | 0.00 | 0.25 | 0.00 | 94 | 1006.9 |
| 20260505220539 | 13 | 251 | 0.0 | 3.2 | 0.00 | 0.25 | 0.00 | 94 | 1006.9 |
| 20260505220053 | 13 | 251 | 0.0 | 3.2 | 0.00 | 0.25 | 0.00 | 94 | 1006.9 |
| 20260505215541 | 13 | 251 | 0.0 | 0.0 | 0.00 | 0.25 | 0.25 | 94 | 1007.0 |
| 20260505215039 | 13 | 251 | 0.0 | 0.0 | 0.00 | 0.25 | 0.25 | 94 | 1007.0 |
| 20260505214546 | 13 | 251 | 0.0 | 0.0 | 0.00 | 0.25 | 0.25 | 94 | 1006.9 |
| 20260505214039 | 13 | 251 | 0.0 | 0.0 | 0.00 | 0.25 | 0.25 | 94 | 1007.1 |
| 20260505213539 | 13 | 251 | 0.0 | 0.0 | 0.00 | 0.25 | 0.25 | 94 | 1007.1 |
| 20260505213040 | 13 | 251 | 0.0 | 0.0 | 0.00 | 0.25 | 0.25 | 94 | 1007.1 |